{"data":{"norad_id":59740,"intl_designator":"2024-090L","name":"STARLINK-31759","alt_names":[],"object_type":"PAYLOAD","status":"ACTIVE","operator":null,"country":"US","launch_date":"2024-05-13","launch_site_code":"AFETR","launch_vehicle":null,"mission":null,"orbit_class":"UNKNOWN","rcs_meters":null,"size_class":null,"mass_kg":null,"dimensions":null,"purposes":["comms"],"wikipedia_slug":null,"has_3d_model":false,"image_url":null,"decayed_at":null,"tle_current":{"epoch":"2026-09-21T10:31:19.276320Z","epoch_age_seconds":90283,"freshness":"FRESH","line1":"1 59740U 24090L   26264.43841755  .00000093  00000+0  12911-4 0  9996","line2":"2 59740  43.0028 158.3303 0001218 272.1093  87.9619 15.27575745133378","mean_motion":15.27575745,"eccentricity":0.0001218,"inclination_deg":43.0028,"raan_deg":158.3303,"arg_perigee_deg":272.1093,"mean_anomaly_deg":87.9619,"bstar":1.2911e-5,"rev_number":13337,"period_min":94.26701128984,"perigee_km":482.2261430516,"apogee_km":483.89753108831,"semimajor_km":6861.19883707,"source":"CELESTRAK","updated_at":"2026-09-22T09:00:49.063615Z"}}}